Location: *
(45.8589°N, 4.7139°E)
Time: 20:44:52
(UTC+00:00)

Cosmos 2154 Rocket - Pass Details

Date: 09 April 2020
Orbit: 965 x 997 km, 82.9° (Epoch: 24 May)

Event Time Altitude Azimuth Distance (km) Brightness Sun altitude
Rises 19:23:05 0° 351° (N) 3,728 7.5 -11.2°
Reaches altitude 10° 19:25:38 10° 352° (N) 2,773 6.8 -11.6°
Maximum altitude 19:32:01 88° 80° (E) 1,000 4.0 -12.6°
Drops below altitude 10° 19:38:20 10° 173° (S) 2,738 6.0 -13.5°
Sets 19:40:49 0° 173° (S) 3,678 6.7 -13.9°
